DW0218 Weather Reports


time (UTC)temp
C
wind
direction
speed
KPH
gust
KPH
rain 1hr
cm
rain 24hr
cm
rain mn
cm
humidity
%
barometer
mb
20260506030805 9 340 1.6 3.2 0.00 0.00 0.00 87 1013.0
20260506022805 9 0 0.0 3.2 0.00 0.00 0.00 85 1012.0
20260506021805 10 0 0.0 4.8 0.00 0.00 0.00 85 1012.2
20260506015805 10 22 1.6 4.8 0.00 0.00 0.00 85 1013.0
20260506001805 11 357 0.0 4.8 0.00 0.00 0.00 80 1011.0
20260505234804 11 0 0.0 4.8 0.00 0.00 0.00 80 1012.0
20260505232805 11 334 1.6 4.8 0.00 0.00 0.00 79 1013.0
20260505225805 11 45 0.0 3.2 0.00 0.00 0.00 77 1013.0
20260505222805 11 22 1.6 3.2 0.00 0.00 0.00 75 1012.0
20260505221805 12 0 0.0 4.8 0.00 0.00 0.00 74 1012.0
20260505220805 12 22 0.0 4.8 0.00 0.00 0.00 73 1013.0
20260505213805 12 0 1.6 4.8 0.00 0.00 0.00 72 1012.0
20260505212805 12 22 0.0 4.8 0.00 0.00 0.00 72 1013.0
20260505210805 12 45 0.0 3.2 0.00 0.00 0.00 72 1012.0
20260505205804 12 0 0.0 3.2 0.00 0.00 0.00 72 1012.0
20260505202805 12 0 0.0 3.2 0.00 0.00 0.00 71 1012.0
20260505201805 12 0 1.6 4.8 0.00 0.00 0.00 71 1012.0
20260505194804 13 0 0.0 3.2 0.00 0.00 0.00 71 1012.0
20260505193804 13 0 0.0 3.2 0.00 0.03 0.00 70 1012.0
20260505192805 13 0 0.0 3.2 0.00 0.08 0.00 70 1011.0
20260505183805 13 0 1.6 4.8 0.00 0.23 0.00 69 1011.0
20260505182805 14 0 0.0 3.2 0.00 0.23 0.00 70 1011.0
20260505181805 14 0 1.6 4.8 0.00 0.23 0.00 70 1011.0
20260505180805 14 22 1.6 4.8 0.00 0.23 0.00 69 1011.0
20260505175805 14 39 0.0 4.8 0.00 0.23 0.00 68 1011.0
20260505174806 14 22 1.6 4.8 0.00 0.23 0.00 67 1011.0
20260505164805 15 0 0.0 1.6 0.00 0.36 0.00 64 1011.0
20260505163805 15 22 0.0 3.2 0.00 0.38 0.00 64 1011.0
20260505162805 15 0 0.0 4.8 0.00 0.41 0.00 65 1011.0
20260505160806 15 0 1.6 3.2 0.00 0.46 0.00 65 1011.0
20260505124806 13 356 1.6 3.2 0.00 0.46 0.00 71 1012.0
20260505122805 14 49 0.0 4.8 0.00 0.46 0.00 69 1013.0
20260505121806 14 338 1.6 4.8 0.00 0.46 0.00 67 1013.0
20260505120805 14 45 1.6 8.0 0.00 0.46 0.00 68 1012.0
20260505115806 14 339 3.2 8.0 0.00 0.46 0.00 66 1012.0
20260505114805 14 17 1.6 9.7 0.00 0.46 0.00 64 1012.0
20260505113805 15 1 3.2 8.0 0.00 0.46 0.00 64 1013.0
20260505111805 15 2 3.2 8.0 0.00 0.46 0.00 65 1012.0
20260505110805 15 0 3.2 8.0 0.00 0.46 0.00 65 1011.0
20260505101805 15 358 3.2 8.0 0.00 0.46 0.00 70 1012.0
20260505100805 15 0 3.2 4.8 0.00 0.46 0.00 69 1012.0
20260505094805 14 16 0.0 8.0 0.00 0.46 0.00 73 1012.0
20260505092805 13 355 3.2 8.0 0.00 0.46 0.00 77 1012.0
20260505091805 14 0 1.6 4.8 0.00 0.46 0.00 72 1012.0
20260505085806 13 341 1.6 4.8 0.00 0.46 0.00 80 1013.0
20260505083805 13 334 3.2 8.0 0.00 0.46 0.00 81 1012.0
20260505082805 14 352 1.6 8.0 0.00 0.46 0.00 77 1013.0
20260505081805 13 8 0.0 8.0 0.00 0.46 0.00 80 1013.0
20260505075805 12 31 1.6 4.8 0.00 0.46 0.00 87 1012.0
20260505074805 12 0 0.0 4.8 0.00 0.46 0.00 91 1012.0
20260505073805 12 348 0.0 4.8 0.00 0.46 0.00 97 1012.0
20260505072805 11 0 1.6 3.2 0.00 0.46 0.00 98 1012.0
20260505065805 10 0 0.0 3.2 0.00 0.46 0.00 98 1013.0
20260505063805 10 0 0.0 3.2 0.00 0.46 0.00 98 1013.0
20260505062805 9 0 1.6 4.8 0.00 0.46 0.00 98 1013.0
20260505061805 9 0 0.0 4.8 0.00 0.46 0.00 98 1013.0
20260505055806 9 0 0.0 3.2 0.00 0.46 0.00 98 1013.0
20260505054805 9 0 0.0 3.2 0.00 0.46 0.00 98 1013.0
20260505053805 9 0 0.0 3.2 0.00 0.46 0.00 98 1013.0
20260505035805 10 45 0.0 1.6 0.00 0.46 0.00 98 1013.0
20260505032805 10 45 0.0 3.2 0.00 0.46 0.00 98 1013.0